Airfield :
LOGIN :

Register | Disclaimer

   EN    FR    IT 

 










Legend :    VFR   Marginal VFR   IFR   Intensive IFR   Very Intensive IFR
Visi :
Ceiling :
>= 8 km
>= 3000ft
5 to 8 km
1000 to 3000 ft
1500m to 5 km
500 to 1000 ft
800 to 1500m
200 to 500 ft
< 800m
< 200 ft
Symbols :   Thunderstorms  Fog  Heavy snow  Heavy precipitations  Wind > 20 kt
SIGMETs :     Misc.  Thunderstorms  Icing  Turbulence  Mountain Waves  Volcanic Ashes







- Airport Elevation : 196 ft
- IATA code : SDN


ENSD - Sandane , Anda

CURRENT METAR :
  • 241620Z 30014KT 260V330 9999 FEW027 SCT045 BKN053 14/08 Q1007 RMK WIND 1138FT VRB12G24KT

EXPIRED METARs :
  • 241550Z 30013KT 270V330 9999 FEW025 SCT045 14/08 Q1007 RMK WIND 1138FT 29011G21KT
  • 241520Z 30013KT 260V340 9999 FEW026 SCT045 15/08 Q1007 RMK WIND 1138FT 28012KT
  • 241450Z 29010KT 9999 FEW030 SCT041 BKN055 15/07 Q1007 RMK WIND 1138FT 29010KT
  • 241420Z 28012KT 9999 FEW035 SCT043 BKN055 16/07 Q1007 RMK WIND 1138FT 29010KT
  • 241350Z 28011KT 240V310 9999 FEW035 SCT042 16/06 Q1006 RMK WIND 1138FT 31009KT

TAF N/A
No reported NOTAMs for that airfield.



MET'MAP, your aeronautical weather chart ! - Copyright ORBIFLY December 2007 - Disclaimer

ORBIFLY MET'MAP TEAM :

Programming & Development : Alexandra Zaïnal
Concept & Development : Baudouin d'Aumeries
Co-Development & Prog : Marc-Olivier Méhu
Technical & hardware support : Manuel Goepfert

Contact : metmap@orbifly.com




SOURCES & CREDITS :

   NOAA